TimeCDT,TemperatureF,Dew PointF,Humidity,Sea Level PressureIn,VisibilityMPH,Wind Direction,Wind SpeedMPH,Gust SpeedMPH,PrecipitationIn,Events,Conditions,WindDirDegrees,DateUTC
12:52 AM,28.9,23.0,78,30.08,10.0,NNE,6.9,-,N/A,,Clear,20,2012-11-02 05:52:00
1:52 AM,28.9,23.0,78,30.08,10.0,NNE,5.8,-,N/A,,Clear,20,2012-11-02 06:52:00
2:52 AM,28.0,23.0,81,30.08,10.0,NE,3.5,-,N/A,,Clear,50,2012-11-02 07:52:00
3:52 AM,28.9,24.1,82,30.07,10.0,ENE,5.8,-,N/A,,Clear,60,2012-11-02 08:52:00
4:52 AM,28.9,23.0,78,30.06,10.0,ENE,6.9,-,N/A,,Clear,60,2012-11-02 09:52:00
5:52 AM,28.0,23.0,81,30.08,10.0,ENE,5.8,-,N/A,,Clear,60,2012-11-02 10:52:00
6:52 AM,28.0,23.0,81,30.08,10.0,ENE,9.2,-,N/A,,Clear,70,2012-11-02 11:52:00
7:52 AM,28.0,23.0,81,30.10,10.0,ENE,9.2,-,N/A,,Clear,70,2012-11-02 12:52:00
8:52 AM,30.0,23.0,75,30.12,10.0,East,9.2,-,N/A,,Clear,80,2012-11-02 13:52:00
9:52 AM,33.1,25.0,72,30.12,10.0,ESE,10.4,-,N/A,,Clear,110,2012-11-02 14:52:00
11:52 AM,37.0,27.0,67,30.13,10.0,ESE,9.2,-,N/A,,Clear,120,2012-11-02 16:52:00
12:52 PM,39.0,27.0,62,30.14,10.0,ESE,6.9,-,N/A,,Clear,120,2012-11-02 17:52:00
1:52 PM,39.9,28.0,63,30.12,10.0,ESE,5.8,-,N/A,,Clear,120,2012-11-02 18:52:00
2:52 PM,42.1,28.0,58,30.10,10.0,East,5.8,-,N/A,,Clear,100,2012-11-02 19:52:00
3:52 PM,42.1,27.0,55,30.08,10.0,ESE,11.5,-,N/A,,Clear,110,2012-11-02 20:52:00
4:52 PM,42.1,26.1,53,30.09,10.0,East,9.2,-,N/A,,Overcast,100,2012-11-02 21:52:00
5:52 PM,41.0,26.1,55,30.10,10.0,East,8.1,-,N/A,,Overcast,80,2012-11-02 22:52:00
6:52 PM,39.9,28.0,63,30.11,10.0,East,8.1,-,N/A,,Overcast,80,2012-11-02 23:52:00
7:52 PM,39.9,28.0,63,30.12,10.0,ENE,9.2,-,N/A,,Overcast,70,2012-11-03 00:52:00
8:52 PM,39.0,28.0,65,30.14,10.0,NE,8.1,-,N/A,,Overcast,50,2012-11-03 01:52:00
9:52 PM,39.0,28.0,65,30.16,10.0,NNE,6.9,-,N/A,,Overcast,30,2012-11-03 02:52:00
10:52 PM,37.9,28.0,68,30.17,10.0,NNE,6.9,-,N/A,,Overcast,30,2012-11-03 03:52:00